STARLINK-4308, 53061

Orbit data source: Space-Track

STARLINK-4308, 53061 is a payload satellite owned by SpaceX/Seattle (US) in SSO that was launched on Mon, 11 Jul 2022 UTC via an FALCON 9 launch vehicle from the Air Force Western Test Range (AFWTR). Payload-class satellites include a variety of spacecraft equipped with specific instruments for various scientific and technological missions. These include communications satellites like Starlink; space stations such as the ISS; scientific satellites like the Hubble; Earth observation satellites from companies like Planet Labs, Umbra, and HawkEye 360; GPS; miniature CubeSats for education and research; and military/defense satellites.

Loading next visibility...
Identifier
53061, 2022-077U
Orbit
SSO
Country
Flag of USUS
Related business
Manufacturer
SpaceX/Seattle
Mission
Operational Commercial Communications
Bus & Motor
STARLINK, Unknown motor
Mass
297 kg wet, ~275 kg dry
Launch date (UTC)
2022-07-11 (3 years ago)
Launch vehicle
FALCON 9
Launch site
Air Force Western Test Range (AFWTR)
Object type
Payload
Rocket body
Debris
Shape & HBR
Box + 1 Pan, 10.1 m
Radar Cross Section
13.562 m², Large (>1 m²)

Expand to show TLE details & history
Last TLE update: 20 hours ago

TLE from 20 hours ago
0 STARLINK-4308
1 53061U 22077U   25349.23130522  .00000897  00000-0  74343-4 0  9993
2 53061  97.6015 167.5335 0002761  42.9175 317.2265 15.01262353188246
Epoch: 2025-12-15T05:33Z
TLE epoch observation values (Epoch: 2025-12-15T05:33:04.771Z)
Latitude
0.00006°
Longitude
0.13077°
Altitude
564.655 km
Speed
7.58 km/s
True Right ascension
11h 10m 08s
True Declination
0° 00' 00"
Sunlit
Object was in daylight at epoch
Visualization orbit readout
Latitude
Unknown
Longitude
Unknown
Altitude
Unknown
Speed
Unknown
Apparent Right ascension
Unknown
Apparent Declination
Unknown
Sunlit
N/A
Visualization observer readout
Local Sidereal Time
00:19:42
Azimuth
Unknown
Elevation
Unknown
Doppler factor
Unknown
Orbital elements
Apogee altitude
561.917 km
Perigee altitude
558.086 km
Semi-major axis
6,938.139 km
Eccentricity
0.00028
Inclination
97.6015°
RAAN
167.5335°
Arg. of periapsis
42.9175°
True anomaly
317.20501°
Mean anomaly
317.2265°
Eccentric anomaly
317.21575°
Mean motion
3.75559 °/min
Orbital period
95.86 mins
BSTAR
0.000074343
Loading maneuver chart data...
Computing Atmospheric mass density...
Loading historical data...
Loading historical data...
Loading historical data...
Loading historical data...
Loading historical data...
Loading historical data...
Loading historical data...

Documentation

Showing up to 5 results
|